Location: Cartersville (historical)
(42.9944°N, 93.0869°W)
Time: 03:14:54
(UTC+00:00)

Envisat - Pass Details

Date: 08 October 2024
Orbit: 762 x 763 km, 98.3° (Epoch: 04 November)

Event Time Altitude Azimuth Distance (km) Brightness Sun altitude
Rises 09:37:23 0° 10° (N) 3,236 6.6 -29.8°
Reaches altitude 10° 09:39:42 10° 9° (N) 2,305 5.8 -29.4°
Enters shadow 09:42:57 40° 357° (N) 1,123 3.9 -28.8°
